Find Starlink 31367

NORAD ID: 59408 Int'l Des: 2024-064 Owner: SPXS Country: US Constellation: starlink decayed
LEOCIRCULAR
Vis

Historical Track — Feb 22, 2025

3D地球を読み込み中...

Starlink 31367について

説明を読み込み中...

高度履歴

Loading altitude history...

軌道要素

1 59408U 24064L 25052.42084350 .04468287 25994-1 10362-1 0 9994
2 59408 42.9868 28.1097 0017198 164.2762 333.0183 15.99269665 51157
Epoch: Feb 21, 2025 • Age: 10578 hours

現在のステータス

Position data unavailable
打ち上げ日 Apr 5, 2024
運用期間 2 years
落下予定日 Feb 22, 2025
タイプ internet

技術仕様

分類 Payload
質量 730.00 kg
乾燥質量 700.00 kg
総質量 730.00 kg
長さ 0.30 m
直径 4.10 m
スパン 29.00 m
形状 Box + pan
製造者 SPXS
バスタイプ Starlink V2M
フェーズステータス Reentered
所有者/国 SPXS/US

Most Searched